QPF
0.10 0.09 0.08 0.06 0.05 0.03 0.01 0.00 0.00 0.00 0.00 0.00 0.00 0.01 0.02 0.03 0.04 0.03 0.02 0.02 0.02 0.02 0.02 0.03 0.02 0.01 0.01 0.00 0.00 0.00 0.00 0.00 0.00 0.00 0.00 0.00 0.00 0.00
0.16 0.15 0.13 0.11 0.09 0.05 0.03 0.02 0.01 0.00 0.00 0.00 0.00 0.00 0.01 0.01 0.02 0.01 0.00 0.01 0.00 0.00 0.01 0.01 0.01 0.01 0.01 0.00 0.00 0.00 0.00 0.00 0.00 0.00 0.00 0.00 0.00 0.00
0.21 0.21 0.20 0.17 0.13 0.08 0.05 0.03 0.02 0.01 0.00 0.00 0.00 0.01 0.01 0.01 0.00 0.00 0.00 0.00 0.00 0.00 0.00 0.00 0.00 0.00 0.00 0.00 0.00 0.00 0.00 0.00 0.00 0.00 0.00 0.00 0.00 0.00
0.20 0.21 0.21 0.20 0.16 0.10 0.06 0.03 0.02 0.02 0.01 0.00 0.00 0.00 0.00 0.00 0.00 0.00 0.00 0.00 0.00 0.00 0.00 0.00 0.00 0.00 0.00 0.00 0.00 0.00 0.00 0.00 0.00 0.00 0.00 0.00 0.00 0.00
0.14 0.16 0.19 0.21 0.20 0.14 0.08 0.04 0.03 0.02 0.01 0.00 0.00 0.00 0.00 0.00 0.00 0.00 0.00 0.00 0.00 0.01 0.00 0.00 0.00 0.00 0.00 0.00 0.00 0.00 0.00 0.00 0.00 0.00 0.00 0.00 0.00 0.00
0.12 0.13 0.14 0.16 0.18 0.17 0.13 0.07 0.03 0.02 0.01 0.01 0.01 0.00 0.00 0.00 0.00 0.00 0.00 0.00 0.00 0.00 0.00 0.00 0.00 0.00 0.00 0.00 0.00 0.00 0.00 0.00 0.00 0.00 0.00 0.00 0.00 0.00
0.13 0.15 0.15 0.16 0.17 0.15 0.13 0.10 0.06 0.03 0.02 0.02 0.02 0.01 0.00 0.01 0.01 0.01 0.02 0.01 0.01 0.00 0.00 0.00 0.00 0.00 0.00 0.00 0.00 0.00 0.00 0.00 0.00 0.00 0.00 0.00 0.00 0.00
0.12 0.13 0.14 0.14 0.15 0.15 0.13 0.09 0.06 0.04 0.03 0.03 0.03 0.02 0.01 0.01 0.01 0.02 0.03 0.03 0.02 0.01 0.01 0.01 0.01 0.00 0.00 0.00 0.00 0.00 0.00 0.00 0.00 0.00 0.00 0.00 0.00 0.00
0.07 0.09 0.09 0.09 0.09 0.08 0.07 0.05 0.04 0.04 0.04 0.05 0.05 0.05 0.03 0.02 0.02 0.02 0.04 0.05 0.04 0.03 0.03 0.03 0.02 0.01 0.00 0.00 0.00 0.00 0.00 0.00 0.00 0.00 0.00 0.00 0.00 0.00
0.04 0.05 0.05 0.05 0.05 0.04 0.03 0.03 0.03 0.03 0.04 0.05 0.07 0.08 0.08 0.06 0.04 0.05 0.06 0.07 0.07 0.07 0.05 0.05 0.04 0.02 0.01 0.00 0.00 0.00 0.00 0.00 0.00 0.00 0.00 0.00 0.00 0.00
0.03 0.03 0.02 0.02 0.02 0.01 0.02 0.02 0.03 0.03 0.04 0.06 0.08 0.09 0.10 0.09 0.08 0.07 0.09 0.10 0.12 0.11 0.08 0.07 0.06 0.04 0.02 0.01 0.00 0.00 0.00 0.00 0.00 0.00 0.00 0.00 0.00 0.00
0.04 0.03 0.03 0.02 0.01 0.01 0.01 0.01 0.02 0.02 0.02 0.02 0.03 0.04 0.04 0.04 0.04 0.06 0.08 0.08 0.09 0.09 0.07 0.05 0.05 0.04 0.02 0.01 0.00 0.00 0.00 0.00 0.00 0.00 0.00 0.00 0.00 0.00
0.03 0.03 0.02 0.01 0.01 0.01 0.00 0.01 0.01 0.01 0.01 0.01 0.01 0.02 0.02 0.02 0.02 0.02 0.03 0.04 0.04 0.04 0.03 0.02 0.02 0.02 0.01 0.01 0.00 0.00 0.00 0.00 0.00 0.00 0.00 0.00 0.00 0.00
0.01 0.02 0.01 0.01 0.01 0.01 0.01 0.01 0.00 0.00 0.00 0.00 0.00 0.01 0.01 0.01 0.01 0.01 0.01 0.01 0.01 0.01 0.01 0.00 0.01 0.01 0.00 0.00 0.00 0.00 0.00 0.00 0.00 0.00 0.00 0.00 0.00 0.00
0.02 0.04 0.03 0.01 0.01 0.01 0.00 0.00 0.00 0.00 0.00 0.00 0.00 0.00 0.00 0.00 0.00 0.00 0.00 0.00 0.00 0.00 0.00 0.00 0.00 0.00 0.00 0.00 0.00 0.00 0.00 0.00 0.00 0.00 0.00 0.00 0.00 0.00
0.01 0.04 0.03 0.01 0.00 0.00 0.00 0.00 0.00 0.00 0.00 0.00 0.00 0.00 0.00 0.00 0.00 0.00 0.00 0.00 0.00 0.00 0.00 0.00 0.00 0.00 0.00 0.00 0.00 0.00 0.00 0.00 0.00 0.00 0.00 0.00 0.00 0.00
0.02 0.01 0.01 0.01 0.00 0.00 0.00 0.00 0.00 0.00 0.00 0.00 0.00 0.00 0.00 0.00 0.00 0.00 0.00 0.00 0.00 0.00 0.00 0.00 0.00 0.00 0.00 0.00 0.00 0.00 0.00 0.00 0.00 0.00 0.00 0.00 0.00 0.00
0.02 0.02 0.01 0.01 0.01 0.00 0.00 0.00 0.00 0.00 0.00 0.00 0.00 0.00 0.00 0.00 0.00 0.00 0.00 0.00 0.00 0.00 0.00 0.00 0.00 0.00 0.00 0.00 0.00 0.00 0.00 0.00 0.00 0.00 0.00 0.00 0.00 0.00
0.00 0.01 0.01 0.01 0.00 0.00 0.00 0.00 0.00 0.00 0.00 0.00 0.00 0.00 0.00 0.00 0.00 0.00 0.00 0.00 0.00 0.00 0.00 0.00 0.00 0.00 0.00 0.00 0.00 0.00 0.00 0.00 0.00 0.00 0.00 0.00 0.00 0.00
0.00 0.00 0.00 0.00 0.00 0.00 0.00 0.00 0.00 0.00 0.00 0.00 0.00 0.00 0.00 0.00 0.00 0.00 0.00 0.00 0.00 0.00 0.00 0.00 0.00 0.00 0.00 0.00 0.00 0.00 0.00 0.00 0.00 0.00 0.00 0.00 0.00 0.00
0.00 0.00 0.00 0.00 0.00 0.00 0.00 0.00 0.00 0.00 0.00 0.00 0.00 0.00 0.00 0.00 0.00 0.00 0.00 0.00 0.00 0.00 0.00 0.00 0.00 0.00 0.00 0.00 0.00 0.00 0.00 0.00 0.00 0.00 0.00 0.00 0.00 0.00
0.00 0.00 0.00 0.00 0.00 0.00 0.00 0.00 0.00 0.00 0.00 0.00 0.00 0.00 0.00 0.00 0.00 0.00 0.00 0.00 0.00 0.00 0.00 0.00 0.00 0.00 0.00 0.00 0.00 0.00 0.00 0.00 0.00 0.00 0.00 0.00 0.01 0.01
0.00 0.00 0.00 0.00 0.00 0.00 0.00 0.00 0.00 0.00 0.00 0.00 0.00 0.00 0.00 0.00 0.00 0.00 0.00 0.00 0.00 0.00 0.00 0.00 0.00 0.00 0.00 0.00 0.00 0.00 0.00 0.00 0.00 0.00 0.00 0.00 0.00 0.00
MSLP
1009.45 1008.97 1008.61 1008.38 1008.25 1008.21 1008.24 1008.29 1008.36 1008.43 1008.49 1008.55 1008.61 1008.69 1008.80 1008.96 1009.16 1009.41 1009.72 1010.09 1010.52 1010.99 1011.51 1012.05 1012.60 1013.15 1013.68 1014.19 1014.65 1015.07 1015.44 1015.77 1016.07 1016.33 1016.57 1016.78 1016.96 1017.12
1009.53 1008.99 1008.56 1008.25 1008.05 1007.95 1007.92 1007.96 1008.04 1008.15 1008.28 1008.43 1008.60 1008.77 1008.98 1009.20 1009.46 1009.76 1010.09 1010.47 1010.88 1011.34 1011.83 1012.34 1012.86 1013.38 1013.87 1014.34 1014.77 1015.16 1015.52 1015.85 1016.15 1016.43 1016.68 1016.91 1017.11 1017.26
1009.72 1009.13 1008.64 1008.25 1007.97 1007.80 1007.72 1007.72 1007.80 1007.95 1008.13 1008.36 1008.62 1008.89 1009.18 1009.49 1009.81 1010.15 1010.52 1010.91 1011.33 1011.77 1012.24 1012.72 1013.19 1013.66 1014.11 1014.53 1014.92 1015.28 1015.61 1015.93 1016.22 1016.51 1016.77 1017.01 1017.22 1017.38
1010.05 1009.43 1008.89 1008.43 1008.08 1007.83 1007.69 1007.65 1007.71 1007.86 1008.08 1008.36 1008.68 1009.02 1009.39 1009.76 1010.14 1010.53 1010.92 1011.33 1011.76 1012.20 1012.64 1013.10 1013.54 1013.97 1014.38 1014.75 1015.10 1015.42 1015.72 1016.01 1016.30 1016.58 1016.85 1017.10 1017.32 1017.48
1010.56 1009.93 1009.35 1008.84 1008.42 1008.10 1007.89 1007.80 1007.82 1007.94 1008.16 1008.44 1008.79 1009.17 1009.57 1009.99 1010.40 1010.82 1011.25 1011.68 1012.11 1012.56 1013.01 1013.45 1013.88 1014.28 1014.65 1014.99 1015.30 1015.58 1015.85 1016.12 1016.39 1016.66 1016.93 1017.18 1017.40 1017.58
1011.23 1010.60 1010.00 1009.47 1009.00 1008.63 1008.36 1008.20 1008.16 1008.23 1008.40 1008.66 1008.98 1009.36 1009.76 1010.18 1010.60 1011.04 1011.48 1011.92 1012.38 1012.84 1013.30 1013.75 1014.18 1014.57 1014.94 1015.25 1015.54 1015.80 1016.04 1016.28 1016.53 1016.78 1017.04 1017.28 1017.50 1017.68
1011.99 1011.39 1010.82 1010.28 1009.79 1009.38 1009.06 1008.84 1008.73 1008.74 1008.84 1009.04 1009.30 1009.63 1009.98 1010.37 1010.78 1011.20 1011.64 1012.10 1012.58 1013.06 1013.54 1014.01 1014.46 1014.87 1015.24 1015.56 1015.83 1016.08 1016.30 1016.52 1016.74 1016.97 1017.20 1017.42 1017.62 1017.79
1012.78 1012.23 1011.70 1011.19 1010.71 1010.30 1009.95 1009.69 1009.53 1009.46 1009.49 1009.61 1009.79 1010.04 1010.33 1010.65 1011.01 1011.41 1011.83 1012.29 1012.77 1013.27 1013.78 1014.28 1014.75 1015.19 1015.58 1015.91 1016.19 1016.43 1016.64 1016.84 1017.03 1017.22 1017.42 1017.61 1017.78 1017.91
1013.49 1013.02 1012.55 1012.10 1011.67 1011.29 1010.95 1010.68 1010.49 1010.38 1010.35 1010.38 1010.49 1010.64 1010.85 1011.10 1011.40 1011.74 1012.13 1012.56 1013.04 1013.55 1014.07 1014.59 1015.09 1015.55 1015.96 1016.31 1016.60 1016.84 1017.04 1017.22 1017.39 1017.54 1017.70 1017.84 1017.96 1018.04
1014.07 1013.67 1013.29 1012.92 1012.58 1012.26 1011.98 1011.74 1011.56 1011.44 1011.37 1011.36 1011.40 1011.48 1011.61 1011.78 1012.01 1012.28 1012.62 1013.01 1013.45 1013.94 1014.46 1014.98 1015.49 1015.96 1016.39 1016.75 1017.05 1017.30 1017.49 1017.65 1017.79 1017.90 1018.00 1018.09 1018.15 1018.17
1014.48 1014.16 1013.87 1013.60 1013.35 1013.13 1012.94 1012.78 1012.66 1012.57 1012.51 1012.48 1012.49 1012.52 1012.59 1012.70 1012.85 1013.06 1013.33 1013.66 1014.05 1014.49 1014.97 1015.47 1015.96 1016.42 1016.85 1017.21 1017.51 1017.76 1017.94 1018.09 1018.19 1018.27 1018.32 1018.34 1018.34 1018.30
1014.75 1014.49 1014.28 1014.12 1013.99 1013.88 1013.80 1013.75 1013.71 1013.69 1013.68 1013.68 1013.69 1013.71 1013.75 1013.81 1013.90 1014.04 1014.23 1014.49 1014.80 1015.17 1015.59 1016.03 1016.47 1016.90 1017.30 1017.65 1017.95 1018.18 1018.36 1018.48 1018.56 1018.60 1018.61 1018.58 1018.51 1018.40
1014.94 1014.74 1014.60 1014.52 1014.50 1014.51 1014.55 1014.61 1014.68 1014.75 1014.82 1014.88 1014.92 1014.96 1014.98 1015.02 1015.06 1015.14 1015.26 1015.43 1015.66 1015.94 1016.26 1016.62 1017.00 1017.37 1017.73 1018.05 1018.32 1018.54 1018.70 1018.81 1018.87 1018.88 1018.84 1018.76 1018.64 1018.48
1015.17 1015.00 1014.91 1014.90 1014.95 1015.06 1015.20 1015.37 1015.54 1015.71 1015.86 1015.99 1016.08 1016.15 1016.19 1016.21 1016.23 1016.26 1016.31 1016.40 1016.53 1016.72 1016.94 1017.21 1017.50 1017.80 1018.09 1018.37 1018.61 1018.80 1018.95 1019.04 1019.08 1019.06 1018.99 1018.87 1018.70 1018.49
1015.52 1015.36 1015.30 1015.33 1015.44 1015.61 1015.82 1016.06 1016.31 1016.55 1016.77 1016.96 1017.11 1017.22 1017.28 1017.31 1017.31 1017.30 1017.30 1017.31 1017.36 1017.45 1017.58 1017.74 1017.94 1018.16 1018.39 1018.61 1018.81 1018.98 1019.10 1019.18 1019.19 1019.15 1019.05 1018.89 1018.69 1018.44
1016.06 1015.91 1015.86 1015.90 1016.03 1016.22 1016.46 1016.74 1017.02 1017.31 1017.57 1017.80 1017.99 1018.12 1018.20 1018.24 1018.23 1018.20 1018.16 1018.12 1018.10 1018.10 1018.14 1018.22 1018.33 1018.47 1018.63 1018.79 1018.95 1019.08 1019.17 1019.21 1019.20 1019.13 1019.00 1018.81 1018.57 1018.28
1016.80 1016.66 1016.61 1016.65 1016.77 1016.95 1017.18 1017.45 1017.73 1018.01 1018.28 1018.52 1018.71 1018.86 1018.95 1018.99 1018.99 1018.95 1018.88 1018.80 1018.73 1018.67 1018.64 1018.65 1018.68 1018.75 1018.84 1018.94 1019.04 1019.12 1019.17 1019.18 1019.13 1019.02 1018.85 1018.61 1018.33 1018.00
1017.69 1017.59 1017.55 1017.58 1017.67 1017.82 1018.01 1018.23 1018.47 1018.71 1018.94 1019.15 1019.33 1019.47 1019.56 1019.60 1019.60 1019.55 1019.48 1019.38 1019.28 1019.18 1019.11 1019.05 1019.03 1019.03 1019.05 1019.09 1019.13 1019.15 1019.14 1019.09 1018.99 1018.83 1018.60 1018.32 1017.98 1017.61
1018.65 1018.59 1018.57 1018.60 1018.67 1018.77 1018.90 1019.06 1019.23 1019.40 1019.57 1019.73 1019.88 1019.99 1020.06 1020.10 1020.09 1020.05 1019.98 1019.88 1019.77 1019.66 1019.56 1019.46 1019.39 1019.34 1019.30 1019.27 1019.24 1019.19 1019.11 1018.99 1018.82 1018.59 1018.30 1017.95 1017.56 1017.12
1019.55 1019.55 1019.57 1019.61 1019.66 1019.72 1019.79 1019.88 1019.97 1020.06 1020.16 1020.26 1020.35 1020.42 1020.48 1020.50 1020.50 1020.47 1020.41 1020.33 1020.22 1020.11 1019.99 1019.88 1019.77 1019.67 1019.57 1019.48 1019.38 1019.25 1019.10 1018.90 1018.65 1018.35 1017.98 1017.56 1017.10 1016.60
1020.29 1020.36 1020.43 1020.48 1020.52 1020.55 1020.57 1020.58 1020.60 1020.62 1020.65 1020.68 1020.72 1020.75 1020.78 1020.80 1020.80 1020.79 1020.75 1020.68 1020.60 1020.50 1020.38 1020.26 1020.13 1019.99 1019.85 1019.70 1019.53 1019.34 1019.11 1018.83 1018.50 1018.12 1017.69 1017.20 1016.67 1016.11
1020.80 1020.93 1021.03 1021.10 1021.13 1021.13 1021.11 1021.07 1021.03 1020.98 1020.94 1020.92 1020.91 1020.91 1020.92 1020.93 1020.94 1020.94 1020.92 1020.88 1020.83 1020.75 1020.65 1020.53 1020.40 1020.25 1020.08 1019.89 1019.67 1019.41 1019.12 1018.78 1018.39 1017.95 1017.45 1016.91 1016.33 1015.72
1021.06 1021.22 1021.33 1021.40 1021.42 1021.39 1021.33 1021.24 1021.15 1021.04 1020.96 1020.88 1020.83 1020.81 1020.80 1020.81 1020.83 1020.84 1020.86 1020.85 1020.83 1020.79 1020.72 1020.62 1020.50 1020.35 1020.18 1019.97 1019.72 1019.44 1019.11 1018.73 1018.30 1017.83 1017.30 1016.72 1016.11 1015.47
Thickness
5423 5433 5442 5453 5462 5472 5482 5491 5498 5502 5511 5521 5528 5536 5544 5550 5555 5558 5561 5563 5565 5567 5569 5570 5572 5573 5574 5576 5578 5579 5581 5583 5585 5587 5590 5592 5595 5597
5403 5413 5423 5433 5443 5452 5461 5470 5478 5485 5491 5499 5507 5515 5523 5529 5534 5538 5542 5545 5548 5550 5552 5554 5556 5558 5559 5561 5562 5565 5567 5569 5571 5574 5576 5579 5582 5584
5385 5395 5405 5415 5426 5434 5443 5450 5458 5465 5471 5476 5484 5492 5500 5506 5512 5517 5521 5525 5529 5532 5535 5537 5539 5542 5544 5546 5547 5549 5552 5554 5556 5559 5562 5565 5568 5571
5370 5379 5390 5401 5409 5418 5426 5434 5441 5447 5454 5459 5463 5471 5477 5484 5490 5495 5500 5505 5510 5514 5516 5518 5521 5524 5526 5529 5531 5533 5536 5538 5541 5544 5547 5550 5553 5555
5353 5363 5374 5384 5394 5402 5410 5417 5425 5432 5438 5443 5447 5452 5458 5464 5469 5474 5479 5484 5490 5493 5497 5500 5503 5506 5508 5511 5513 5516 5519 5522 5525 5527 5529 5533 5536 5539
5335 5344 5355 5366 5377 5386 5394 5400 5408 5415 5422 5428 5432 5436 5441 5447 5453 5456 5458 5463 5468 5473 5477 5480 5483 5486 5490 5493 5496 5499 5501 5503 5506 5509 5512 5516 5520 5523
5317 5325 5335 5345 5358 5369 5378 5385 5393 5400 5407 5414 5418 5422 5426 5431 5436 5441 5442 5443 5446 5452 5456 5460 5464 5467 5469 5473 5477 5480 5483 5485 5488 5491 5495 5499 5503 5507
5301 5308 5317 5325 5335 5348 5360 5370 5378 5384 5391 5398 5403 5409 5411 5416 5421 5426 5427 5430 5431 5437 5439 5436 5442 5445 5450 5456 5460 5462 5465 5466 5469 5472 5477 5481 5485 5490
5286 5292 5299 5307 5315 5325 5336 5347 5356 5365 5372 5378 5384 5388 5393 5399 5407 5414 5417 5418 5417 5418 5421 5419 5422 5425 5431 5437 5441 5444 5446 5448 5451 5454 5458 5463 5468 5473
5271 5277 5284 5292 5301 5307 5316 5325 5333 5342 5351 5358 5364 5369 5374 5380 5388 5395 5399 5397 5396 5398 5405 5405 5405 5407 5412 5417 5421 5424 5427 5429 5433 5436 5441 5446 5451 5456
5256 5262 5269 5276 5286 5292 5297 5304 5311 5319 5328 5336 5343 5349 5356 5363 5370 5376 5381 5385 5383 5381 5385 5390 5390 5390 5393 5396 5401 5404 5408 5411 5415 5419 5424 5430 5436 5441
5240 5246 5255 5262 5270 5275 5279 5285 5291 5296 5304 5311 5318 5325 5331 5338 5346 5353 5361 5368 5370 5366 5367 5373 5374 5377 5377 5378 5381 5385 5389 5393 5398 5403 5408 5414 5420 5425
5223 5229 5237 5246 5254 5260 5264 5269 5274 5278 5284 5291 5297 5303 5310 5316 5322 5329 5337 5345 5350 5349 5351 5356 5358 5360 5363 5364 5365 5368 5372 5376 5382 5387 5391 5397 5404 5411
5206 5212 5220 5229 5236 5242 5247 5253 5257 5261 5267 5273 5278 5283 5288 5294 5300 5308 5315 5322 5328 5331 5334 5340 5343 5344 5345 5347 5350 5352 5356 5361 5366 5371 5376 5382 5389 5397
5190 5198 5205 5211 5216 5221 5228 5232 5236 5242 5248 5252 5257 5262 5268 5274 5282 5289 5295 5301 5307 5311 5316 5321 5325 5327 5329 5331 5333 5336 5340 5346 5351 5357 5363 5369 5377 5385
5171 5179 5187 5192 5196 5201 5206 5211 5217 5222 5227 5232 5237 5243 5250 5257 5264 5270 5277 5284 5288 5292 5297 5301 5306 5310 5313 5316 5320 5322 5326 5331 5339 5345 5352 5360 5368 5375
5153 5159 5165 5170 5175 5180 5185 5191 5196 5201 5207 5213 5219 5226 5232 5239 5245 5252 5259 5266 5270 5274 5278 5285 5290 5296 5300 5304 5308 5312 5316 5321 5328 5336 5344 5353 5361 5368
5132 5137 5143 5149 5155 5160 5166 5171 5177 5183 5189 5195 5201 5208 5214 5221 5227 5234 5241 5246 5252 5257 5263 5269 5276 5283 5289 5294 5298 5303 5307 5313 5320 5328 5336 5344 5354 5363
5109 5114 5119 5126 5133 5139 5146 5152 5158 5164 5171 5178 5184 5190 5198 5205 5211 5217 5224 5230 5236 5243 5249 5255 5262 5269 5276 5282 5287 5293 5298 5305 5312 5321 5329 5336 5345 5356
5090 5093 5098 5105 5112 5119 5126 5133 5140 5147 5154 5160 5167 5173 5181 5189 5196 5202 5208 5216 5223 5230 5236 5242 5249 5255 5262 5268 5274 5282 5289 5296 5304 5313 5322 5331 5340 5350
5075 5078 5082 5087 5092 5099 5106 5114 5121 5129 5136 5143 5150 5157 5165 5173 5180 5188 5195 5204 5210 5216 5223 5230 5237 5244 5251 5257 5263 5272 5281 5289 5297 5304 5314 5324 5335 5345
5065 5067 5069 5073 5077 5081 5088 5095 5103 5111 5119 5126 5134 5142 5150 5158 5166 5175 5183 5190 5197 5204 5211 5219 5227 5234 5241 5249 5256 5263 5272 5283 5292 5299 5308 5316 5324 5336
5058 5059 5060 5062 5065 5069 5073 5079 5087 5094 5102 5110 5119 5127 5136 5144 5153 5162 5170 5179 5187 5194 5201 5209 5217 5224 5233 5241 5248 5256 5264 5275 5286 5296 5305 5314 5322 5331